Date String (YYYY-MM-DD hh:mm:ss) UTC,Instrument flags,Ambient pressure (hPa),Sample flow (lpm),Bypass flow (lpm),Sample temperature (°C),Ambient temperature (°C),ASC tube jacket temperature (°C),LED temperature (°C),Box temperature (°C),Sample RH (%),Span deviation,Mass concentration (μg/m³),Mass concentration (μg/m³),Mass concentration (μg/m³)
DateTimeUTC,F1_M11,P_M11,Q1_M11,Q2_M11,T1_M11,T2_M11,T3_M11,T4_M11,T5_M11,U1_M11,ZSPAN_M11,X0_M11,X2_M11,X1_M11
2022-11-26 12:00:00,,0821.0,4.99,0.00,22.9,21.4,00.0,31.8,24.6,12.5,0000.0,0004.04,0001.25,0000.87
2022-11-26 12:01:00,,0821.0,5.01,0.00,22.9,21.4,00.0,31.8,24.6,12.5,0000.0,0004.00,0001.23,0000.87
2022-11-26 12:02:00,,0821.0,5.01,0.00,22.8,21.4,00.0,31.8,24.5,12.5,0000.0,0004.04,0001.24,0000.87
2022-11-26 12:03:00,,0821.0,4.98,0.00,22.8,21.4,00.0,31.8,24.6,12.6,0000.0,0003.98,0001.23,0000.87
2022-11-26 12:04:00,,0821.0,5.00,0.00,22.8,21.4,00.0,31.8,24.6,12.7,0000.0,0003.81,0001.18,0000.86
2022-11-26 12:05:00,,0821.0,5.00,0.00,22.8,21.3,00.0,31.8,24.5,12.7,0000.0,0003.82,0001.19,0000.86
2022-11-26 12:06:00,,0821.0,5.02,0.00,22.8,21.3,00.0,31.8,24.5,12.7,0000.0,0003.73,0001.16,0000.85
2022-11-26 12:07:00,,0821.0,5.00,0.00,22.8,21.3,00.0,31.8,24.5,12.7,0000.0,0003.69,0001.14,0000.83
2022-11-26 12:08:00,,0821.0,5.00,0.00,22.8,21.3,00.0,31.8,24.4,12.7,0000.0,0003.55,0001.09,0000.83
2022-11-26 12:09:00,,0821.0,4.99,0.00,22.8,21.2,00.0,31.8,24.4,12.7,0000.0,0003.66,0001.09,0000.83
2022-11-26 12:10:00,,0821.0,4.99,0.00,22.7,21.2,00.0,31.8,24.4,12.7,0000.0,0003.62,0001.09,0000.82
2022-11-26 12:11:00,,0820.9,5.00,0.00,22.7,21.2,00.0,31.8,24.4,12.6,0000.0,0002.00,0001.07,0000.81
2022-11-26 12:12:00,,0821.0,5.00,0.00,22.7,21.2,00.0,31.7,24.4,12.6,0000.0,0002.46,0001.09,0000.80
2022-11-26 12:13:00,,0820.9,5.00,0.00,22.7,21.2,00.0,31.7,24.4,12.6,0000.0,0002.40,0001.06,0000.80
2022-11-26 12:14:00,,0820.9,5.00,0.00,22.7,21.2,00.0,31.7,24.4,12.6,0000.0,0002.36,0001.03,0000.78
2022-11-26 12:15:00,,0820.9,5.00,0.00,22.7,21.2,00.0,31.7,24.5,12.5,0000.0,0002.32,0001.01,0000.77
2022-11-26 12:16:00,,0820.9,5.00,0.00,22.7,21.2,00.0,31.7,24.5,12.5,0000.0,0002.26,0000.98,0000.76
2022-11-26 12:17:00,,0820.9,5.00,0.00,22.7,21.2,00.0,31.7,24.4,12.5,0000.0,0003.95,0001.03,0000.76
2022-11-26 12:18:00,,0820.9,5.00,0.00,22.7,21.2,00.0,31.7,24.3,12.5,0000.0,0004.90,0001.06,0000.77
2022-11-26 12:19:00,,0820.9,5.00,0.00,22.7,21.2,00.0,31.7,24.3,12.5,0000.0,0005.06,0001.10,0000.77
2022-11-26 12:20:00,,0821.0,5.00,0.00,22.7,21.2,00.0,31.7,24.3,12.6,0000.0,0004.99,0001.12,0000.77
2022-11-26 12:21:00,,0821.0,5.00,0.00,22.7,21.2,00.0,31.7,24.2,12.7,0000.0,0004.95,0001.12,0000.77
2022-11-26 12:22:00,,0821.0,5.00,0.00,22.6,21.1,00.0,31.7,24.3,12.7,0000.0,0004.75,0001.14,0000.78
2022-11-26 12:23:00,,0821.0,5.00,0.00,22.6,21.1,00.0,31.7,24.3,12.6,0000.0,0004.27,0001.12,0000.78
2022-11-26 12:24:00,,0821.0,4.99,0.00,22.6,21.1,00.0,31.6,24.3,12.6,0000.0,0004.82,0001.16,0000.79
2022-11-26 12:25:00,,0821.0,5.01,0.00,22.6,21.1,00.0,31.6,24.3,12.5,0000.0,0005.91,0001.20,0000.79
2022-11-26 12:26:00,,0821.0,5.01,0.00,22.6,21.1,00.0,31.6,24.3,12.5,0000.0,0005.88,0001.19,0000.78
2022-11-26 12:27:00,,0820.9,5.00,0.00,22.6,21.1,00.0,31.6,24.2,12.5,0000.0,0006.24,0001.20,0000.79
2022-11-26 12:28:00,,0820.9,4.99,0.00,22.6,21.1,00.0,31.6,24.3,12.5,0000.0,0004.86,0001.15,0000.78
2022-11-26 12:29:00,,0820.9,4.99,0.00,22.6,21.1,00.0,31.6,24.3,12.5,0000.0,0004.78,0001.10,0000.78
2022-11-26 12:30:00,,0820.9,5.00,0.00,22.6,21.1,00.0,31.6,24.4,12.5,0000.0,0004.61,0001.05,0000.77
2022-11-26 12:31:00,,0820.9,5.01,0.00,22.6,21.1,00.0,31.6,24.4,12.5,0000.0,0004.50,0001.01,0000.77
2022-11-26 12:32:00,,0820.9,5.01,0.00,22.6,21.1,00.0,31.6,24.3,12.4,0000.0,0004.46,0000.99,0000.76
2022-11-26 12:33:00,,0820.9,5.00,0.00,22.6,21.2,00.0,31.6,24.4,12.5,0000.0,0004.41,0000.96,0000.75
2022-11-26 12:34:00,,0820.9,5.00,0.00,22.6,21.2,00.0,31.6,24.5,12.5,0000.0,0004.51,0000.97,0000.75
2022-11-26 12:35:00,,0820.9,5.00,0.00,22.6,21.2,00.0,31.6,24.5,12.5,0000.0,0004.21,0001.00,0000.75
2022-11-26 12:36:00,,0820.9,4.99,0.00,22.6,21.2,00.0,31.6,24.5,12.5,0000.0,0003.01,0000.95,0000.75
2022-11-26 12:37:00,,0820.9,4.99,0.00,22.6,21.2,00.0,31.6,24.4,12.4,0000.0,0002.96,0000.92,0000.74
2022-11-26 12:38:00,,0820.9,5.00,0.00,22.6,21.2,00.0,31.6,24.4,12.4,0000.0,0002.65,0000.92,0000.73
2022-11-26 12:39:00,,0820.9,5.00,0.00,22.5,21.2,00.0,31.6,24.4,12.5,0000.0,0002.42,0000.93,0000.72
2022-11-26 12:40:00,,0820.9,5.00,0.00,22.5,21.2,00.0,31.5,24.4,12.6,0000.0,0001.52,0000.94,0000.72
2022-11-26 12:41:00,,0820.9,5.00,0.00,22.5,21.1,00.0,31.5,24.3,12.6,0000.0,0001.60,0000.96,0000.72
2022-11-26 12:42:00,,0820.9,5.00,0.00,22.5,21.1,00.0,31.5,24.2,12.6,0000.0,0001.64,0000.98,0000.73
2022-11-26 12:43:00,,0820.9,5.01,0.00,22.5,21.1,00.0,31.5,24.2,12.6,0000.0,0001.70,0001.01,0000.73
2022-11-26 12:44:00,,0820.8,5.01,0.00,22.5,21.1,00.0,31.5,24.2,12.6,0000.0,0001.75,0001.04,0000.73
2022-11-26 12:45:00,,0820.8,4.99,0.00,22.5,21.1,00.0,31.5,24.2,12.6,0000.0,0001.70,0001.02,0000.72
2022-11-26 12:46:00,,0820.8,5.00,0.00,22.5,21.0,00.0,31.5,24.2,12.6,0000.0,0001.51,0000.97,0000.72
2022-11-26 12:47:00,,0820.8,4.99,0.00,22.5,21.0,00.0,31.5,24.1,12.6,0000.0,0001.55,0000.98,0000.73
2022-11-26 12:48:00,,0820.7,5.00,0.00,22.5,21.0,00.0,31.5,24.1,12.6,0000.0,0001.64,0000.99,0000.73
2022-11-26 12:49:00,,0820.7,5.00,0.00,22.5,21.0,00.0,31.5,24.2,12.6,0000.0,0001.75,0001.04,0000.74
2022-11-26 12:50:00,,0820.7,5.01,0.00,22.5,21.0,00.0,31.5,24.2,12.7,0000.0,0002.17,0001.03,0000.75
2022-11-26 12:51:00,,0820.7,5.01,0.00,22.4,21.0,00.0,31.5,24.1,12.7,0000.0,0002.80,0001.01,0000.75
2022-11-26 12:52:00,,0820.7,5.01,0.00,22.4,21.0,00.0,31.5,24.1,12.8,0000.0,0002.76,0001.00,0000.75
2022-11-26 12:53:00,,0820.7,4.99,0.00,22.4,21.0,00.0,31.5,24.1,12.9,0000.0,0002.74,0001.00,0000.77
2022-11-26 12:54:00,,0820.6,4.99,0.00,22.4,21.0,00.0,31.5,24.1,12.8,0000.0,0002.75,0001.01,0000.78
2022-11-26 12:55:00,,0820.6,5.01,0.00,22.4,20.9,00.0,31.4,24.1,12.9,0000.0,0002.74,0001.00,0000.79
2022-11-26 12:56:00,,0820.6,5.00,0.00,22.4,20.9,00.0,31.4,24.1,12.9,0000.0,0002.78,0001.02,0000.80
2022-11-26 12:57:00,,0820.6,4.98,0.00,22.4,20.9,00.0,31.4,24.1,12.8,0000.0,0002.85,0001.04,0000.82
2022-11-26 12:58:00,,0820.6,5.00,0.00,22.4,20.9,00.0,31.4,24.2,12.8,0000.0,0002.90,0001.06,0000.82
2022-11-26 12:59:00,,0820.6,5.00,0.00,22.4,20.9,00.0,31.4,24.1,12.8,0000.0,0002.92,0001.10,0000.82
